This is the latest recevied weather packets stored in our database for station/object KE6LRO. If no packets are shown the sender has not sent any weather packets the latest 10 day(s).
| Time | Temp. | Humidity | Pressure | Rain* | Wind** | Luminosity | Snow |
|---|---|---|---|---|---|---|---|
| 1777817909 | 1.67° C | 99% | 1021.2 hPa | 0 mm | - | 110 W/m² | - |
| 1777817607 | 1.67° C | 99% | 1021.2 hPa | 0 mm | - | 49 W/m² | - |
| 1777817304 | 1.11° C | 99% | 1021.1 hPa | 0 mm | - | 71 W/m² | - |
| 1777817001 | 0.56° C | 99% | 1021.2 hPa | 0 mm | - | 60 W/m² | - |
| 1777816697 | 0° C | 99% | 1021.1 hPa | 0 mm | - | 35 W/m² | - |
| 1777816394 | 0° C | 99% | 1021.2 hPa | 0 mm | - | 33 W/m² | - |
| 1777816092 | 0° C | 99% | 1020.9 hPa | 0 mm | - | 31 W/m² | - |
| 1777815790 | 0° C | 99% | 1021.2 hPa | 0 mm | - | 30 W/m² | - |
| 1777815487 | 0° C | 99% | 1021.1 hPa | 0 mm | - | 29 W/m² | - |
| 1777815184 | -0.56° C | 99% | 1020.9 hPa | 0 mm | - | 27 W/m² | - |
| 1777814880 | -0.56° C | 99% | 1020.9 hPa | 0 mm | - | 26 W/m² | - |
| 1777814576 | -0.56° C | 99% | 1021.1 hPa | 0 mm | - | 25 W/m² | - |
| 1777814274 | -0.56° C | 99% | 1020.9 hPa | 0 mm | - | 23 W/m² | - |
| 1777813970 | -0.56° C | 99% | 1021.2 hPa | 0 mm | - | 22 W/m² | - |
| 1777813668 | -0.56° C | 99% | 1021.2 hPa | 0 mm | - | 20 W/m² | - |
| 1777813365 | -0.56° C | 99% | 1021.2 hPa | 0 mm | - | 19 W/m² | - |
| 1777813063 | -0.56° C | 99% | 1020.9 hPa | 0 mm | - | 16 W/m² | - |
| 1777812760 | -0.56° C | 99% | 1021.1 hPa | 0 mm | - | 14 W/m² | - |
| 1777812456 | -0.56° C | 99% | 1020.8 hPa | 0 mm | - | 13 W/m² | - |
| 1777812155 | -0.56° C | 99% | 1020.8 hPa | 0 mm | - | 10 W/m² | - |
| 1777811853 | -0.56° C | 99% | 1020.9 hPa | 0 mm | - | 8 W/m² | - |
| 1777811551 | -0.56° C | 99% | 1020.8 hPa | 0 mm | - | 6 W/m² | - |
| 1777811246 | -0.56° C | 99% | 1020.7 hPa | 0 mm | - | 5 W/m² | - |
| 1777810944 | -0.56° C | 99% | 1020.6 hPa | 0 mm | - | 3 W/m² | - |
| 1777810640 | -0.56° C | 99% | 1020.8 hPa | 0 mm | - | 2 W/m² | - |
* Rain latest hour (hover to see other rain measurements)
** Current wind speed in m/s (hover to see current wind gust speed)